Theta_e
357 358 357 353 352 344 343 349 351 371 365 361 350 344 344 343 344 347 362 362 363 361 360 361 360 359 356 354 349 347 349 346 345 346 347 344 345 346 344 343 339 336 338 335 334 336 336 335 334 335 336 335 333 334 333 334 335 337 338 337 336 338 337 335 331 332 337 340 339 339 340 341 342 344 341 347 350 353 355 356 359 360 359 355 359
358 362 365 356 349 347 349 352 361 369 365 351 349 347 344 352 359 366 363 365 362 359 361 359 358 357 352 348 346 344 349 350 344 344 343 343 341 340 340 340 337 337 336 335 335 335 334 334 333 333 336 335 334 332 333 333 333 334 334 335 334 335 338 335 333 332 331 337 338 340 339 341 339 341 342 342 351 359 356 354 354 357 352 357 359
363 364 365 363 364 351 368 361 366 360 353 350 347 345 347 347 361 364 362 360 361 360 358 357 356 353 350 347 346 346 346 344 343 343 343 343 341 338 337 336 334 332 331 332 333 334 332 332 331 332 334 334 333 333 333 333 333 333 333 334 334 335 336 338 335 331 331 334 338 337 339 342 340 340 342 343 350 351 350 347 345 350 351 351 352
363 363 362 352 352 367 369 367 364 358 354 350 355 348 351 360 366 364 361 358 358 359 358 356 355 355 347 347 346 347 345 344 343 343 344 342 339 336 334 333 333 332 332 331 332 333 333 332 330 333 334 333 332 332 332 333 334 334 334 335 336 336 337 338 338 335 334 332 336 336 338 338 339 341 344 344 343 344 345 347 348 349 348 348 349
365 364 363 364 362 366 366 367 367 360 350 356 359 364 366 367 369 366 363 358 358 358 356 354 352 352 345 345 345 346 346 346 346 345 342 341 337 334 335 334 333 335 335 336 334 334 334 332 333 334 335 332 331 330 332 333 333 334 334 335 336 338 338 338 338 339 336 333 334 339 340 342 344 343 344 343 345 346 350 347 345 344 345 348 348
369 368 366 365 365 359 368 370 368 371 367 367 360 370 370 368 366 366 365 363 361 358 355 347 346 346 345 344 343 343 345 346 345 344 341 339 336 336 337 336 335 338 338 337 335 334 333 335 334 335 335 332 331 332 333 333 334 334 335 336 337 339 338 338 339 338 337 336 335 336 341 339 339 343 343 345 342 341 343 344 345 345 347 346 343
373 372 368 363 365 366 368 371 374 374 374 372 372 372 370 368 366 364 364 362 359 354 351 347 346 345 345 343 340 341 340 341 344 343 341 340 339 338 337 336 338 337 338 337 334 334 334 332 334 335 335 335 334 333 333 334 334 336 337 336 337 338 338 337 338 337 337 337 337 337 335 339 339 338 341 344 343 345 340 339 338 343 345 343 343
375 374 372 369 368 371 371 373 377 374 379 378 374 371 369 367 365 364 363 359 354 353 350 347 347 347 344 343 341 340 338 338 340 343 341 341 340 338 338 338 338 339 338 337 335 335 334 335 335 335 335 337 337 336 337 335 336 336 337 338 337 336 335 337 337 336 336 335 335 333 333 335 336 339 341 342 338 340 340 338 334 337 339 342 342
374 375 372 372 369 374 373 373 375 375 380 376 373 370 367 366 364 363 360 356 350 349 351 346 345 344 344 342 341 337 335 334 336 338 340 341 340 338 338 338 339 338 337 335 336 335 333 333 334 335 337 338 340 341 342 341 337 335 337 338 338 337 337 336 336 336 335 335 334 335 336 335 336 336 336 335 334 333 339 339 339 339 339 339 339
375 374 371 371 371 376 375 374 374 378 376 373 371 368 365 363 361 360 357 354 352 352 350 348 347 344 341 339 338 334 333 334 337 338 339 338 340 339 339 340 340 339 337 336 335 335 336 334 336 337 338 338 340 343 344 343 342 340 339 338 337 336 336 336 335 335 334 333 332 333 332 332 333 335 335 336 339 340 336 337 336 337 338 337 338
376 374 370 373 372 376 375 373 375 377 374 371 368 366 363 361 359 356 352 352 352 351 349 347 345 342 340 336 334 332 333 334 336 334 335 336 339 340 341 338 339 339 337 336 335 334 335 338 339 338 338 338 337 341 343 344 343 341 342 343 343 338 336 335 335 337 335 333 331 332 332 332 333 335 336 337 339 338 337 338 337 337 335 333 330
375 374 372 373 372 374 373 375 376 374 372 369 366 364 361 359 355 353 351 350 350 349 348 346 344 341 336 335 333 331 332 334 333 333 334 334 337 339 337 335 338 338 337 335 334 335 336 335 336 337 336 336 334 334 339 343 343 342 342 342 343 344 343 338 336 335 334 332 330 330 331 331 333 335 335 336 336 338 339 339 337 336 334 333 333
375 373 372 373 371 372 375 376 374 371 369 367 365 362 359 356 353 351 349 349 349 348 347 343 342 340 337 334 331 332 331 334 331 331 332 332 334 338 337 337 337 336 336 336 337 337 336 335 333 334 333 337 335 333 336 337 342 343 342 342 342 341 338 341 342 340 337 333 331 330 330 331 331 332 335 336 338 336 337 335 336 336 335 333 333
374 372 370 371 370 373 376 375 371 369 367 365 362 360 357 354 352 352 350 349 347 345 344 343 342 341 337 334 333 331 331 333 330 331 330 329 332 338 339 336 337 336 335 332 331 332 333 332 332 332 333 333 333 333 335 338 339 340 341 340 338 338 338 339 339 339 339 336 333 330 332 333 331 333 336 340 338 336 336 335 338 335 334 333 336
372 371 370 371 371 374 376 372 369 367 365 363 360 358 356 354 352 350 349 347 346 345 343 342 340 339 337 334 331 329 330 328 329 328 327 327 330 343 336 334 334 333 332 331 329 329 331 332 333 332 332 332 333 333 335 339 341 341 340 339 338 337 336 335 336 337 338 337 335 333 333 334 334 334 335 338 341 341 339 338 338 338 337 339 337
370 371 370 372 373 375 373 370 368 365 363 361 359 356 354 352 350 350 349 348 348 347 344 342 340 339 337 335 330 330 327 326 327 327 326 327 331 340 337 335 333 333 333 333 332 330 330 332 333 332 332 332 333 331 337 344 339 337 336 337 338 338 338 339 335 338 338 338 338 336 333 334 334 336 336 334 337 343 346 344 341 338 338 333 331
370 370 370 372 374 374 372 369 366 363 362 359 357 354 352 350 350 350 347 346 345 344 342 341 341 338 337 336 334 334 330 327 323 323 323 325 338 341 340 338 336 336 336 337 335 331 331 332 332 332 331 331 329 326 332 338 337 336 335 335 336 336 338 340 341 339 338 335 334 332 334 333 333 330 329 330 334 339 340 336 335 339 335 330 330
370 370 371 375 374 373 372 369 364 362 360 358 356 354 352 351 349 349 346 344 343 343 343 341 341 340 338 336 335 333 333 330 322 322 321 323 335 343 342 341 337 338 339 338 337 332 331 333 332 330 330 330 326 325 329 339 336 335 334 334 332 332 332 336 338 342 339 336 335 335 334 336 338 336 334 333 333 338 335 332 335 338 332 332 330
369 369 373 376 374 372 371 368 365 361 360 358 355 352 350 349 349 349 346 345 344 343 341 340 340 341 339 337 334 335 335 332 320 319 320 323 332 346 344 340 338 338 336 333 333 333 331 331 332 330 329 328 322 323 326 338 336 335 334 334 332 331 332 335 336 335 337 336 336 338 338 338 337 336 338 339 338 339 336 336 336 335 333 332 333
371 374 377 375 373 372 370 366 364 362 360 357 355 353 351 350 349 347 345 343 341 342 341 340 340 338 340 340 336 337 335 334 329 318 319 321 326 346 341 338 337 337 335 331 329 328 330 330 330 330 322 321 319 319 321 326 336 336 336 333 332 330 335 333 334 334 335 337 334 334 334 334 333 333 332 332 335 337 335 336 336 336 334 333 333
373 378 377 374 372 370 368 366 363 362 360 356 354 352 351 349 347 346 344 344 343 342 341 339 338 338 340 340 339 337 334 333 330 317 317 319 323 340 342 341 339 336 332 328 326 326 327 328 329 331 321 320 318 316 317 322 334 336 334 332 331 332 338 332 332 335 331 333 334 333 331 330 330 329 328 327 328 331 334 335 336 336 335 334 332
378 378 374 371 370 368 366 365 363 360 358 355 352 350 350 349 347 345 344 343 341 339 338 338 338 339 341 341 339 338 337 335 333 322 318 317 318 326 340 340 343 336 335 327 325 327 329 331 332 332 321 319 316 314 315 320 332 336 333 320 321 327 334 336 333 330 329 329 329 329 329 328 327 328 328 328 328 329 329 332 334 336 337 337 335
377 375 372 370 367 365 364 362 360 358 355 353 350 348 348 347 345 345 342 340 337 336 336 336 336 337 338 339 339 338 339 337 333 330 322 317 317 320 323 335 331 340 333 329 330 331 333 332 332 330 321 312 311 313 316 323 333 328 317 319 325 328 337 338 338 332 330 328 328 328 329 328 328 328 330 330 331 333 331 330 330 332 334 335 338
375 370 368 367 364 363 362 359 357 355 353 351 349 347 346 344 343 341 340 338 336 335 334 333 334 334 334 336 336 337 338 337 333 332 329 320 318 318 320 320 325 334 335 333 333 333 335 332 335 317 311 308 309 314 319 330 330 319 318 322 331 338 341 339 338 335 333 330 329 328 326 328 330 331 333 334 335 335 333 332 331 330 330 331 333
371 367 364 363 361 360 359 358 355 353 352 350 347 344 343 342 340 341 340 339 337 333 331 332 332 334 334 333 334 336 335 336 336 332 330 330 322 321 324 325 324 326 335 334 336 338 326 315 314 314 315 314 314 316 326 330 323 322 326 333 335 336 337 335 336 337 334 330 328 328 328 330 330 332 335 338 341 342 338 335 335 334 333 332 331
365 364 362 360 358 358 355 353 353 352 350 348 345 343 341 340 339 338 337 336 336 332 330 330 331 332 333 333 332 332 334 335 335 335 333 330 330 326 325 332 338 338 337 335 334 324 319 318 317 317 322 326 338 340 341 345 331 335 336 335 333 333 333 334 334 334 331 329 330 329 330 333 335 337 339 338 334 332 337 338 331 328 328 327 325
361 360 358 357 356 353 351 349 348 348 347 345 343 342 341 340 339 338 340 338 335 332 331 331 330 331 332 332 332 332 332 334 335 337 338 337 334 330 332 334 334 334 331 331 331 333 334 337 333 328 325 329 332 333 332 338 337 340 337 336 335 335 334 332 333 332 331 333 332 333 334 332 333 331 330 332 331 332 333 334 335 331 327 325 324
358 357 357 355 351 350 347 343 344 346 345 343 340 338 338 339 339 337 336 337 334 332 331 331 330 330 330 331 332 331 331 331 332 335 336 334 333 334 334 336 334 336 334 335 336 338 339 337 335 331 332 335 336 339 341 333 332 333 338 340 339 334 331 331 334 336 337 336 335 338 337 339 331 329 329 331 332 332 334 334 334 333 334 335 331
358 356 354 351 349 346 345 344 344 342 340 340 341 341 339 338 335 334 333 335 340 334 332 332 332 332 332 332 331 330 329 328 331 327 326 317 338 338 335 341 337 338 328 324 343 340 339 339 338 337 337 336 336 334 331 335 332 330 331 331 331 333 334 333 330 333 335 335 329 329 331 329 329 335 334 331 335 333 335 332 329 338 338 334 327
354 351 350 347 346 344 344 342 339 336 332 327 323 317 314 319 329 329 325 320 313 312 325 336 335 333 335 338 333 333 331 331 311 304 303 303 303 305 307 305 308 324 321 318 335 338 336 337 337 338 335 337 332 333 336 335 332 330 330 329 329 331 328 329 335 335 336 333 334 330 328 329 330 328 326 330 335 335 334 332 332 330 328 326 323
351 348 345 344 343 343 340 335 333 333 331 329 327 323 319 312 301 308 316 315 307 302 302 308 321 329 334 328 319 314 316 307 302 301 301 300 299 299 300 300 301 302 308 331 336 336 336 328 334 338 338 332 331 336 336 332 332 330 325 327 331 333 331 329 328 333 334 334 333 332 333 330 327 330 325 326 325 329 330 327 335 331 324 327 328
349 346 345 344 341 341 337 334 333 331 331 330 330 328 321 315 311 302 301 305 305 302 302 304 308 313 316 319 325 317 309 303 302 301 301 300 299 297 297 298 299 300 303 313 331 332 332 337 332 334 337 333 334 333 334 334 333 331 329 325 327 332 331 331 332 331 326 330 330 331 330 330 331 329 327 326 326 325 328 329 327 328 335 329 332
349 346 344 341 340 338 335 333 331 331 330 329 328 326 322 319 315 313 310 301 301 300 300 301 303 305 307 308 311 310 309 304 301 300 300 298 297 297 299 299 299 300 311 329 331 330 337 337 337 334 335 333 335 337 332 335 335 330 331 330 328 334 334 336 333 338 331 329 328 325 332 328 328 330 327 325 323 322 323 322 324 325 325 328 324
347 344 341 339 337 335 333 332 330 329 330 329 328 327 325 324 321 317 316 317 318 311 304 300 299 301 300 301 302 301 300 300 301 300 299 298 295 296 308 326 300 297 313 331 331 332 335 335 333 336 335 338 336 335 333 332 337 334 333 330 329 332 340 336 332 329 330 329 330 330 326 328 328 328 327 324 321 319 321 320 321 322 322 322 324
344 340 338 337 336 334 332 331 331 331 330 330 329 329 328 328 323 321 321 321 321 320 319 319 309 304 310 304 298 298 298 299 300 299 300 300 300 298 306 332 328 326 326 326 330 330 336 330 333 338 339 335 337 338 333 334 341 337 334 332 330 330 331 330 334 332 335 332 333 331 330 325 327 326 326 326 324 318 318 320 321 321 322 322 321
337 335 335 335 335 334 332 331 330 329 328 328 329 329 330 328 325 325 325 325 323 321 320 320 317 306 302 298 296 297 297 298 299 299 299 298 299 306 326 329 324 325 327 330 330 335 342 340 335 336 339 337 336 340 341 337 332 331 330 329 327 331 331 333 339 339 342 331 329 335 332 331 327 326 322 323 321 324 324 319 321 322 321 321 327
336 334 334 335 336 335 333 332 334 334 332 331 330 331 329 328 327 327 327 326 325 323 321 321 318 316 316 316 307 299 297 298 298 297 298 297 293 318 324 326 329 327 324 326 334 336 334 339 343 339 338 338 340 338 339 327 328 330 330 334 334 331 328 334 333 332 339 332 332 331 330 330 332 325 323 324 323 321 320 325 322 320 321 321 327
338 337 337 338 338 338 337 336 335 332 332 332 332 329 327 326 326 325 325 325 325 324 322 320 319 318 319 320 319 317 310 300 300 303 303 303 315 321 324 325 327 328 331 334 333 335 339 337 338 337 336 339 335 338 332 329 328 329 332 332 334 336 323 330 331 335 332 338 335 336 332 328 329 330 324 324 328 327 325 323 323 327 323 323 325
340 336 334 333 335 336 335 333 332 333 330 329 327 327 326 325 325 325 325 325 325 324 322 320 318 318 320 322 321 321 317 317 317 318 319 320 323 323 323 324 325 330 337 336 332 335 337 336 335 341 335 335 339 339 343 334 337 334 330 327 326 330 326 329 331 336 337 332 334 334 335 336 332 329 329 328 326 329 327 325 326 324 326 324 326
339 337 333 332 333 331 332 331 332 330 329 327 326 326 325 324 324 325 325 326 325 324 322 320 318 320 322 323 321 321 317 317 318 319 320 320 321 322 323 322 323 328 335 336 332 334 334 333 335 333 339 339 338 336 340 344 333 337 338 330 336 328 336 339 338 338 332 334 332 338 337 335 336 329 326 327 330 331 332 328 325 323 323 322 327
338 335 334 332 331 330 330 329 330 329 328 327 326 326 326 326 326 326 326 326 325 324 324 322 320 322 323 320 314 314 319 318 319 319 320 320 320 320 320 320 321 326 330 334 333 329 333 335 330 332 329 332 334 337 337 338 337 330 329 329 332 330 327 330 332 332 328 330 331 331 332 331 330 334 324 330 327 332 330 331 330 328 322 322 321
336 333 332 332 330 329 328 328 329 329 330 329 327 325 326 326 327 326 326 326 324 324 324 324 322 323 318 311 307 306 319 320 320 320 320 321 321 321 321 323 326 331 331 331 333 332 333 336 328 332 326 326 332 332 333 333 335 328 326 329 329 331 326 323 329 329 331 328 329 328 324 324 328 329 327 325 331 327 327 325 326 329 324 319 320
335 333 333 331 330 329 328 328 329 329 329 329 328 329 328 327 327 327 327 326 324 324 325 323 322 326 321 312 312 310 320 322 322 321 322 322 323 323 325 327 328 334 337 336 332 335 339 335 332 332 330 328 331 330 330 332 335 331 334 328 328 329 330 322 323 326 330 330 330 324 323 316 322 322 329 326 323 325 328 329 329 329 323 320 320
334 333 333 331 331 330 330 329 328 328 328 330 330 329 328 329 329 328 327 326 324 323 324 323 322 325 322 316 314 316 321 322 325 323 324 325 325 326 326 327 327 331 330 334 331 332 333 333 331 333 333 330 332 333 332 333 332 330 336 334 333 328 331 330 328 328 329 327 324 323 323 326 329 328 327 322 327 323 323 323 326 326 328 326 318
335 333 331 331 332 331 328 331 329 329 329 329 329 329 329 328 328 328 327 325 324 323 322 322 325 324 322 320 321 321 320 319 323 327 327 327 327 327 327 326 329 336 329 332 334 333 333 332 330 332 332 331 332 333 333 335 334 330 333 335 334 331 333 332 331 331 335 331 328 325 327 321 320 323 325 324 329 327 321 323 321 325 323 326 324
335 334 332 332 332 330 329 330 330 330 329 328 327 327 328 329 329 328 326 324 322 321 321 321 326 324 322 321 321 321 320 320 323 327 326 326 325 326 328 328 328 331 329 329 333 333 331 333 331 331 331 331 329 328 330 330 331 331 338 335 335 332 329 338 333 329 328 328 330 332 324 328 329 322 322 330 328 327 326 326 324 322 323 326 325
337 334 333 332 331 331 331 333 332 331 330 328 329 327 328 328 328 327 326 325 322 321 321 321 324 325 324 323 323 321 319 318 320 322 326 327 327 327 327 328 327 329 329 329 332 332 332 334 334 335 331 331 331 330 326 329 331 333 331 335 337 338 338 334 331 333 333 330 330 328 329 325 324 324 322 325 327 327 324 327 327 325 325 323 326
336 334 333 333 333 331 331 332 332 332 329 329 328 327 326 326 327 326 325 325 324 322 321 321 322 326 325 324 323 320 318 316 317 319 323 326 326 327 327 327 329 328 328 329 331 330 329 330 333 335 333 333 332 328 330 330 325 327 329 330 333 333 324 320 335 338 338 337 330 329 332 327 329 324 322 325 326 327 322 324 320 322 324 324 325
335 334 333 333 332 332 332 332 331 330 330 330 330 329 328 327 327 327 326 324 323 323 322 321 321 324 324 322 320 318 317 317 316 318 320 324 325 326 327 328 331 329 327 327 330 331 333 332 331 333 333 334 335 330 329 331 326 322 324 324 320 306 307 312 323 328 316 335 328 329 331 331 330 329 329 327 329 328 329 330 328 324 325 324 325
337 335 334 332 332 332 333 333 331 331 330 330 329 328 328 328 327 328 329 327 325 323 322 321 321 322 323 321 319 318 319 318 318 319 321 324 325 325 326 328 331 329 328 328 329 330 331 332 332 332 333 334 332 332 329 327 329 325 324 324 305 305 307 309 309 309 327 332 330 331 329 330 330 331 329 327 328 328 326 327 328 327 323 326 326
336 335 334 333 333 333 333 332 331 331 331 330 329 328 328 328 329 329 330 329 327 324 322 321 321 321 322 322 321 321 320 320 320 320 322 324 325 325 325 327 329 329 329 331 330 330 331 331 330 330 330 330 330 330 330 328 327 327 319 306 302 301 302 304 316 305 303 305 328 328 327 328 331 331 329 327 326 325 324 324 326 326 327 323 321
Wind_Speed
9 7 7 8 9 12 13 9 7 2 5 3 5 7 6 7 7 4 8 9 7 8 6 6 5 5 6 6 7 6 5 5 5 4 4 4 4 4 4 5 7 6 6 7 8 6 6 5 6 6 6 6 7 7 8 9 8 6 6 5 6 5 6 6 7 6 5 5 5 5 6 5 2 5 1 2 0 3 5 3 2 2 1 2 2
8 6 5 7 8 9 8 9 6 5 4 6 7 6 6 2 2 11 9 7 7 7 7 6 6 6 7 7 6 7 4 5 6 5 5 5 5 4 6 6 6 6 5 5 6 5 5 5 6 6 5 7 7 8 8 9 8 7 7 7 7 7 6 6 5 5 6 6 5 5 5 6 4 5 5 4 2 1 2 2 3 2 2 2 3
7 6 5 6 5 8 4 8 9 9 8 7 9 8 4 5 4 11 9 8 7 5 7 7 6 7 7 6 6 6 6 6 6 5 4 4 5 7 8 7 7 8 8 7 6 5 6 6 7 7 6 7 8 7 8 9 8 9 9 7 7 7 6 4 4 5 6 6 6 6 6 6 5 6 7 4 3 3 3 3 3 3 3 4 3
8 6 5 8 7 4 7 7 9 8 7 6 6 7 3 3 10 9 8 7 8 8 7 7 6 5 6 7 7 6 6 6 6 5 5 6 7 7 8 8 8 7 6 7 5 4 5 5 7 8 8 7 7 7 8 8 8 7 8 7 6 7 6 5 4 4 4 6 6 6 4 6 6 6 6 6 7 6 4 4 5 5 10 9 7
7 7 6 5 4 3 8 6 5 6 9 4 2 8 10 7 6 7 7 9 8 7 6 6 5 4 7 7 7 6 5 5 5 5 5 6 7 7 6 5 6 5 5 4 6 4 5 5 7 8 8 8 8 8 8 9 7 7 7 6 6 4 6 5 5 3 4 4 5 4 4 2 3 4 5 5 4 4 2 4 6 7 6 5 6
8 8 7 6 4 4 6 5 5 4 2 4 5 8 7 8 8 8 8 8 6 6 5 5 7 8 7 8 7 6 5 5 5 4 6 5 6 5 4 5 4 3 3 4 5 5 4 6 7 7 7 7 8 6 5 6 6 6 7 6 6 5 5 6 6 4 3 3 3 4 3 5 5 3 5 4 4 5 4 4 7 6 4 6 6
8 8 8 7 5 4 7 5 4 4 2 5 8 7 7 8 8 7 7 6 6 6 6 8 8 8 8 7 7 6 6 5 4 4 5 5 5 4 5 5 4 3 4 5 5 5 5 7 7 6 6 6 6 5 4 5 6 7 8 7 6 6 6 5 6 6 4 4 4 5 5 5 5 5 6 6 3 3 4 6 5 1 5 5 4
9 8 7 6 6 5 7 5 4 5 3 8 8 7 7 7 7 7 7 7 7 7 6 8 8 7 7 6 6 5 5 5 5 4 4 4 4 5 4 4 4 4 5 4 5 4 5 5 5 5 6 5 4 4 6 6 7 8 8 7 8 8 8 8 7 6 6 6 6 6 5 4 5 5 5 7 7 6 7 5 2 4 5 6 6
9 8 7 6 7 5 7 5 5 4 7 8 8 8 8 7 7 7 7 7 7 7 7 9 9 8 7 6 6 5 5 6 5 5 5 5 4 5 4 4 4 4 5 5 4 5 6 6 6 5 6 9 12 12 13 11 6 7 8 8 8 8 8 8 7 6 7 7 7 5 5 6 7 7 7 8 7 5 4 4 3 4 4 5 6
9 8 8 7 7 6 7 6 6 6 8 8 8 8 8 8 7 7 7 7 7 7 8 8 7 7 6 6 6 5 5 5 7 10 8 6 6 3 4 4 5 5 5 4 5 5 5 6 5 11 12 11 11 14 14 14 13 9 7 7 8 7 7 7 7 7 7 8 8 8 8 8 8 8 7 7 4 4 6 5 5 3 3 5 6
8 9 8 7 7 7 7 7 7 8 7 8 8 8 8 8 7 8 8 8 7 7 7 7 6 6 7 6 6 6 5 5 10 9 9 10 7 6 2 4 4 5 5 4 5 5 5 4 3 7 9 11 9 14 13 13 13 13 16 17 15 10 7 8 9 10 9 9 8 8 8 9 9 8 8 7 6 6 4 4 4 4 4 4 5
8 8 8 8 8 8 8 8 9 8 8 8 8 8 8 8 8 8 8 9 7 7 7 7 7 6 7 7 6 6 5 6 7 7 8 9 9 6 4 5 5 4 4 5 4 3 4 5 5 5 6 10 9 8 9 12 13 12 14 15 17 18 15 10 8 8 9 8 9 9 8 8 8 8 8 8 7 7 5 5 5 6 6 6 5
8 8 8 8 8 8 9 10 9 8 8 8 7 8 8 9 9 9 9 8 8 7 7 7 7 7 7 7 7 6 5 6 5 7 7 8 9 9 3 4 5 5 5 5 5 6 6 6 6 5 7 13 9 8 6 7 10 12 13 14 16 16 13 14 15 10 6 7 7 8 8 7 8 8 9 8 6 6 5 6 5 6 6 7 5
9 9 8 8 9 9 9 10 9 8 8 8 8 8 9 9 8 7 8 8 8 8 8 8 7 6 6 7 6 5 4 5 5 7 7 8 8 7 3 6 5 5 6 7 7 6 6 6 6 6 6 7 6 7 6 5 5 4 4 6 6 10 12 13 13 15 10 6 6 7 6 7 8 8 8 6 6 5 6 6 5 7 8 7 4
8 8 9 9 9 9 10 10 10 9 9 9 9 9 9 9 9 8 8 8 7 7 8 7 7 7 6 6 6 5 3 5 5 6 6 8 8 6 8 6 6 5 5 5 6 7 6 6 6 7 7 6 7 9 6 5 4 2 5 6 6 5 5 5 6 5 5 5 6 6 6 7 8 9 8 7 6 3 6 4 3 4 4 6 6
9 9 9 9 10 10 10 10 10 10 10 10 10 10 9 9 9 8 8 7 7 7 7 7 7 6 6 6 5 4 3 5 4 4 5 5 9 3 6 5 4 3 3 4 6 6 6 7 7 7 6 6 11 13 10 5 5 6 5 4 5 5 4 2 2 3 2 3 3 4 5 6 10 10 10 9 8 5 3 3 4 4 5 7 6
9 10 10 10 11 11 11 11 10 10 10 11 11 10 10 9 9 7 8 8 8 7 7 7 6 6 6 6 5 4 4 4 5 6 7 8 5 4 4 4 3 3 3 4 6 7 8 8 7 6 6 6 11 13 13 10 6 6 6 7 6 4 3 1 4 5 3 3 2 1 3 0 10 14 14 16 12 8 5 8 8 5 5 6 5
10 10 11 11 11 11 10 11 11 11 11 11 11 10 9 8 8 8 9 9 8 8 7 7 6 6 6 6 4 4 4 4 5 5 5 6 5 2 3 4 3 3 3 4 6 6 10 16 10 6 6 6 10 12 12 9 8 8 7 6 6 6 6 6 3 1 4 6 5 5 6 3 9 11 13 14 14 11 9 9 6 3 5 5 6
10 11 11 11 11 10 10 10 11 12 11 11 10 11 10 9 9 8 8 8 8 7 7 7 6 5 5 5 8 6 4 4 6 7 8 6 6 2 4 4 4 4 5 6 5 5 6 9 13 9 7 8 11 12 12 8 6 5 5 5 5 6 6 4 4 4 4 5 6 7 6 10 7 7 8 13 14 12 9 8 7 7 6 5 3
11 10 10 11 10 10 10 11 11 11 11 11 10 9 9 9 9 9 8 8 8 7 7 6 7 6 4 4 4 4 4 4 5 6 7 8 9 3 5 3 4 4 5 6 6 5 5 5 7 9 10 10 11 11 12 10 6 5 5 5 5 6 7 5 7 7 6 6 7 7 7 7 6 6 7 8 9 9 9 8 8 7 7 6 7
11 10 10 11 10 10 9 10 11 11 11 11 10 9 8 9 9 9 8 7 7 7 6 6 6 5 4 3 4 3 4 4 4 6 9 11 11 6 3 4 4 4 5 6 5 5 5 5 4 7 9 10 10 10 9 10 8 4 4 4 3 5 6 4 7 11 7 7 6 5 6 5 6 6 7 8 8 7 7 7 8 7 7 7 6
11 10 10 11 10 10 10 10 10 10 10 10 10 9 8 9 9 9 8 9 9 8 8 6 4 3 3 3 3 3 4 6 4 7 8 10 11 12 6 4 4 5 6 6 5 4 4 4 3 4 8 9 10 10 10 7 7 4 5 6 7 7 4 3 5 5 6 6 6 6 6 6 6 6 6 6 6 7 7 6 6 6 6 6 6
11 11 10 11 10 11 10 11 10 9 10 10 10 10 9 9 9 9 10 10 10 10 8 8 6 3 3 3 3 3 3 4 6 5 8 9 10 10 9 6 5 5 5 5 4 3 2 2 3 6 8 9 9 9 8 8 6 5 8 8 6 2 3 3 3 5 5 5 6 7 6 5 5 5 5 5 5 4 5 5 6 6 6 6 6
13 14 11 11 11 10 11 11 10 10 11 10 10 11 10 9 9 9 10 11 10 10 8 9 8 6 4 3 3 3 3 3 5 6 5 7 8 8 8 10 9 5 5 5 4 3 2 2 2 6 8 10 11 8 7 4 2 5 7 8 5 7 4 3 4 4 4 5 5 6 6 5 5 4 4 3 3 3 4 4 5 5 6 6 6
12 11 12 11 12 12 11 10 11 11 11 11 10 11 11 11 10 8 8 9 9 9 9 8 9 7 5 5 4 3 3 3 2 3 5 5 5 6 7 8 8 7 5 4 3 1 2 3 5 7 8 9 10 9 7 4 5 9 9 13 10 5 6 6 6 4 4 4 5 4 4 4 4 5 5 5 3 2 3 3 4 4 4 4 5
12 12 12 12 13 12 12 12 12 13 12 11 11 11 12 12 12 12 9 7 7 9 8 9 9 8 6 5 5 4 3 3 3 2 3 4 3 2 3 7 9 8 6 3 4 3 1 4 7 9 9 8 4 1 1 1 2 4 9 6 4 5 5 5 5 5 5 5 5 4 4 3 3 3 3 5 6 6 3 2 5 5 5 5 6
12 13 13 13 12 12 13 11 11 11 11 10 10 10 10 10 9 8 8 5 4 5 6 7 8 8 7 6 5 5 5 4 4 4 4 3 3 3 2 5 8 7 4 3 3 3 4 4 4 5 5 7 8 7 4 4 4 4 3 3 3 4 4 5 5 5 5 4 3 3 3 4 4 5 5 5 6 6 5 4 3 4 5 5 5
12 13 14 12 12 13 13 15 14 10 10 8 9 10 10 10 10 10 11 7 5 4 4 6 7 8 8 7 7 6 5 5 4 5 5 4 4 3 3 4 4 4 4 4 4 3 3 4 5 4 4 4 4 4 1 3 4 3 3 2 2 4 6 7 5 3 2 3 3 2 3 2 3 4 4 3 2 4 4 4 3 4 2 2 1
11 12 12 11 12 12 13 12 11 12 13 13 8 7 10 12 12 10 8 5 5 6 6 5 6 8 7 7 8 7 6 7 6 4 4 3 3 4 3 1 2 3 2 2 2 3 4 5 5 5 5 6 6 6 5 3 4 4 4 4 5 5 3 2 3 2 2 2 4 4 3 4 5 2 2 3 1 2 3 5 5 3 2 3 4
9 10 8 8 9 11 9 8 8 8 8 8 9 9 12 11 10 11 8 8 8 1 3 4 5 8 6 5 3 6 7 6 9 12 10 9 9 9 4 5 6 5 5 5 1 2 5 4 5 4 1 3 3 3 2 2 4 4 4 5 4 4 5 4 1 2 2 3 2 3 3 3 2 3 3 3 2 2 3 1 3 4 5 5 5
8 8 8 7 11 9 8 8 8 6 6 8 9 11 9 11 15 13 11 8 9 10 8 6 8 10 10 5 5 8 15 15 13 13 11 9 8 6 5 8 9 8 8 4 3 4 4 4 3 2 2 4 3 2 2 4 3 3 5 5 3 3 2 3 5 3 2 2 2 2 1 2 3 2 4 3 4 3 3 5 2 3 6 3 2
8 7 7 7 8 8 8 8 8 8 7 7 6 7 10 10 8 12 10 10 13 12 11 12 14 15 17 16 10 4 4 8 13 13 11 9 7 6 6 7 6 8 2 3 1 4 6 2 4 4 2 2 2 1 2 3 3 3 3 4 3 2 2 2 4 2 4 3 2 2 2 2 2 2 3 3 3 3 3 3 5 4 1 1 2
8 9 9 9 8 9 10 9 9 9 10 9 8 9 11 10 11 8 7 10 13 13 12 12 13 14 14 15 16 12 10 8 11 12 11 9 8 5 4 3 4 3 2 1 4 6 3 3 3 3 2 2 2 2 2 3 3 3 3 3 3 1 2 2 3 1 2 4 4 5 1 3 3 2 3 4 4 5 5 6 6 6 6 4 5
6 7 8 9 9 8 8 8 8 8 9 11 12 10 8 8 9 9 8 7 8 11 12 12 12 15 12 13 14 14 11 10 10 11 9 8 6 4 4 1 4 3 3 2 4 5 3 2 4 2 2 1 2 2 2 3 1 2 3 4 4 2 0 2 3 4 3 3 3 2 4 3 3 3 3 4 5 6 5 5 5 5 5 5 4
7 10 13 9 8 9 9 9 9 8 9 9 8 9 9 9 8 9 8 8 8 7 6 4 7 8 9 8 10 11 10 10 10 9 9 7 6 4 2 1 0 2 2 3 4 6 4 4 3 2 2 2 3 2 3 3 2 2 1 3 4 4 4 3 2 3 2 2 2 2 2 4 4 3 3 3 3 5 5 4 3 4 4 5 5
9 8 10 12 11 10 10 10 10 10 10 10 9 8 8 9 9 8 7 7 8 8 7 5 4 5 11 10 9 9 9 9 9 8 7 6 3 3 4 5 4 4 4 4 5 4 1 2 4 3 1 3 2 2 2 2 4 4 5 5 4 4 3 3 1 2 2 2 1 2 1 1 3 3 4 4 5 3 3 4 3 4 3 4 3
10 10 10 11 10 9 10 10 9 9 9 9 9 8 8 8 8 8 7 7 7 7 7 7 6 5 4 4 6 6 6 7 6 6 5 4 2 3 4 4 5 4 6 6 4 2 2 1 1 2 1 2 1 2 2 5 4 2 2 2 2 3 3 2 1 3 3 2 1 2 1 2 1 3 4 4 3 4 4 2 4 4 4 5 4
9 9 10 10 9 9 9 9 9 11 9 6 6 7 8 8 8 7 8 8 8 8 8 7 7 7 7 6 7 5 5 3 4 3 2 1 3 4 5 4 5 6 5 4 4 3 2 3 1 2 2 2 3 3 4 4 5 4 2 2 2 2 5 2 1 2 4 2 1 2 2 1 3 2 4 3 2 3 3 3 4 2 4 5 3
8 10 12 11 9 9 10 10 10 9 8 8 8 8 9 9 9 8 8 8 8 8 8 8 8 7 7 7 7 7 7 4 5 6 6 6 5 5 5 5 5 6 2 3 4 3 2 3 4 2 1 1 2 1 1 3 2 4 4 4 4 4 4 4 4 3 1 4 2 2 2 2 2 3 3 3 3 1 2 3 2 3 2 3 2
7 6 11 13 8 9 9 9 10 9 8 9 9 9 9 9 10 9 8 8 8 8 9 9 8 8 8 9 8 8 8 7 7 6 7 7 6 6 6 6 6 5 3 3 5 3 3 3 3 3 1 1 1 2 2 1 4 2 1 4 2 4 4 2 2 1 2 1 3 1 0 1 2 3 3 4 1 1 1 2 3 3 3 3 2
7 7 8 9 9 9 9 9 8 9 9 8 8 8 9 9 9 9 8 8 8 8 8 8 8 8 9 12 14 12 8 8 7 7 7 7 7 7 6 6 6 5 4 3 4 4 4 3 5 3 3 2 3 2 0 2 2 3 3 4 4 3 4 3 2 2 2 2 0 4 2 1 3 2 3 2 4 2 2 1 2 3 4 3 3
8 9 10 9 9 9 9 9 9 9 8 9 9 9 9 8 8 9 9 9 9 8 8 8 8 8 12 20 17 17 9 7 7 7 7 7 7 7 7 7 7 5 4 4 4 5 4 4 5 4 5 4 3 3 3 2 2 4 4 3 3 2 3 4 3 0 1 3 0 1 3 2 1 1 0 3 1 3 3 2 3 2 3 5 4
9 10 10 10 10 10 10 9 9 9 9 9 8 8 8 9 9 8 7 7 8 7 7 7 7 7 12 18 17 17 9 7 7 8 7 7 7 7 7 7 5 4 3 3 5 5 3 4 4 3 4 4 4 3 4 3 3 3 2 4 3 3 2 5 3 2 2 2 2 2 1 5 3 5 3 3 3 4 2 1 2 1 4 5 4
9 9 9 9 9 8 9 10 10 9 8 9 9 8 9 8 8 8 8 7 7 7 6 8 6 8 9 12 13 11 9 7 5 6 7 7 7 6 6 5 5 4 5 4 5 5 4 4 3 4 4 4 3 3 2 3 3 3 3 3 2 1 1 2 3 4 4 4 4 4 2 1 2 0 1 3 1 5 4 4 2 2 2 3 5
9 9 9 10 9 8 8 8 9 9 9 8 8 8 9 8 7 7 6 7 6 7 6 7 8 9 8 9 9 10 9 7 7 6 6 5 6 5 5 6 5 5 5 4 4 5 4 4 4 3 4 3 3 2 3 3 2 3 2 0 1 2 2 1 3 2 1 2 3 4 3 4 5 5 4 3 2 0 4 4 3 3 2 2 3
8 7 8 8 7 7 8 8 8 8 8 8 9 8 8 8 6 6 5 6 6 6 5 6 8 9 9 9 9 9 8 7 7 6 4 5 5 5 5 5 5 5 5 4 4 5 5 4 4 4 5 4 4 3 3 3 1 0 2 2 2 2 3 1 4 3 1 1 3 1 4 1 2 3 3 2 2 2 3 3 2 3 4 1 2
7 7 8 7 8 8 8 8 8 8 9 8 7 8 7 8 7 7 6 6 6 6 5 5 8 9 9 9 9 8 8 8 7 5 5 5 5 5 5 5 5 5 5 5 4 5 5 4 3 3 5 4 4 4 4 3 2 1 1 2 2 2 2 3 3 2 2 1 1 3 3 1 3 2 1 1 2 2 2 2 1 3 2 1 2
7 8 7 7 8 9 9 9 9 9 8 9 8 9 8 8 7 6 6 6 6 7 6 6 7 9 9 9 8 7 7 7 7 6 5 5 5 5 5 5 4 5 5 4 4 5 5 4 3 3 5 5 4 5 4 3 4 3 3 3 0 3 5 5 3 1 1 1 2 2 1 3 0 3 4 3 3 2 4 3 4 3 3 2 1
9 8 7 8 9 9 10 10 10 10 9 9 8 9 8 8 8 7 8 8 7 7 7 7 7 8 9 8 8 8 7 7 7 7 6 5 5 5 5 5 4 6 5 5 4 6 5 5 4 4 4 5 5 5 4 3 4 4 4 4 7 12 9 8 5 3 3 2 1 1 2 2 2 2 2 1 1 1 2 2 2 1 1 1 1
9 9 9 9 8 9 9 9 10 10 9 9 9 9 9 9 9 8 9 9 9 9 8 7 7 7 8 8 9 8 8 8 8 8 7 6 6 6 5 5 5 6 6 5 5 6 5 5 5 4 4 4 5 5 5 5 4 4 4 6 12 13 11 10 7 4 1 1 2 2 2 2 3 2 2 2 2 2 3 2 2 2 1 1 2
7 9 10 9 9 9 10 10 10 10 9 10 10 10 10 11 11 10 9 9 9 8 9 8 7 7 7 8 8 8 8 7 7 7 7 6 6 6 6 5 6 5 5 5 6 6 6 5 6 6 5 5 5 6 5 5 5 4 7 15 14 12 12 10 6 4 3 1 1 3 4 3 2 2 3 3 3 4 3 4 2 1 2 2 3
Wind_Direction
191 204 177 211 183 185 185 177 199 165 120 169 216 222 209 214 193 195 75 80 88 83 86 79 74 76 64 57 70 66 63 52 57 54 45 31 25 39 21 17 37 38 26 32 31 20 25 14 17 7 351 350 352 352 4 0 2 356 349 352 353 1 13 359 351 338 332 336 336 342 342 1 12 318 75 230 289 336 336 338 305 265 253 265 96
188 200 193 208 208 185 180 160 160 128 158 177 219 231 224 197 260 86 96 79 88 92 88 89 85 77 73 65 62 62 62 69 57 54 39 33 26 38 13 44 34 39 24 35 36 21 15 13 25 8 4 2 1 11 10 4 1 357 352 359 5 353 5 2 346 337 330 335 330 324 330 12 337 338 23 359 57 276 291 308 285 251 232 201 94
180 196 205 210 224 177 180 150 139 143 180 190 204 221 219 252 106 102 105 105 95 101 98 93 89 82 78 69 59 65 49 55 58 48 46 33 32 37 33 30 35 34 25 26 29 21 24 23 23 15 19 7 10 15 10 9 7 6 2 6 352 346 345 351 348 335 333 325 330 335 2 356 354 346 345 353 354 325 317 333 334 355 359 3 62
169 187 206 211 215 139 97 122 131 151 177 197 214 226 262 99 95 106 109 110 100 86 89 95 94 97 94 82 73 69 61 55 54 47 43 43 47 46 37 35 39 33 28 26 30 17 32 29 27 24 14 11 11 23 12 9 14 3 354 353 345 348 343 343 357 340 335 328 338 349 357 349 337 12 353 2 355 348 356 350 348 22 40 33 54
163 170 190 217 222 153 115 122 140 167 180 179 217 83 81 80 85 94 98 106 109 106 105 115 114 99 90 86 76 66 62 56 49 50 45 52 54 49 42 38 37 27 16 3 31 32 41 36 33 27 18 12 19 19 12 6 7 357 347 346 350 354 337 356 343 353 335 338 339 356 360 350 305 16 4 352 347 327 37 11 15 55 50 28 46
155 166 183 208 196 191 128 143 160 187 194 152 128 98 87 90 87 80 91 100 105 115 111 93 84 85 82 83 80 68 55 58 55 56 62 61 63 51 43 54 46 21 6 13 32 36 33 52 40 31 21 17 14 17 13 3 346 353 352 342 356 360 356 353 351 10 12 347 325 342 358 4 347 11 358 350 1 354 16 28 46 33 45 59 52
157 170 182 197 190 187 142 159 158 159 213 101 99 102 101 95 99 98 98 99 97 91 88 86 80 80 73 69 70 65 62 57 53 59 64 68 68 45 43 43 34 17 20 35 30 29 42 50 41 29 26 14 1 5 358 7 353 3 355 348 354 0 2 0 350 5 9 4 343 22 22 357 3 359 0 346 333 8 2 34 27 296 38 56 71
163 171 176 183 175 163 146 154 154 150 136 106 111 109 107 104 100 102 98 99 97 96 99 103 100 92 89 90 85 77 63 56 36 49 78 57 53 58 49 35 34 26 29 34 34 21 32 63 46 36 28 8 3 3 20 19 11 7 357 4 12 14 13 11 14 11 12 21 22 27 17 0 9 9 3 11 16 17 24 48 15 36 59 48 30
164 169 172 170 166 155 143 157 140 150 116 119 116 118 114 110 109 104 108 108 112 109 101 97 95 96 93 90 86 75 70 59 44 35 21 20 40 67 30 41 35 38 37 30 26 30 27 33 28 45 30 22 22 32 28 37 22 18 12 16 18 16 15 17 14 20 27 30 29 18 11 16 20 14 14 27 27 357 2 22 61 57 40 56 37
164 167 170 163 162 152 145 145 146 128 125 123 125 122 120 118 115 112 107 97 90 91 95 101 103 104 100 88 80 74 69 66 57 47 33 20 340 24 64 24 32 44 36 32 24 22 37 23 15 29 35 27 17 17 25 25 38 41 33 25 26 20 16 18 21 22 32 35 28 20 21 21 20 16 14 27 353 1 25 19 38 46 65 75 69
166 168 166 159 159 151 146 147 145 131 129 128 127 126 121 118 116 108 103 106 106 105 110 111 111 106 98 90 81 75 68 55 43 29 27 8 9 328 63 43 41 38 44 38 24 19 11 10 354 28 31 29 20 9 12 24 26 37 37 39 39 35 20 20 31 31 35 36 25 22 22 18 16 11 10 5 10 23 27 0 38 44 56 56 73
166 167 162 157 157 155 150 149 146 140 139 135 130 125 120 117 118 116 116 116 117 119 114 111 109 104 93 91 88 86 84 55 37 29 13 5 1 335 42 45 48 40 43 46 33 15 360 2 29 25 23 30 16 358 359 7 22 36 45 46 40 36 34 44 40 45 41 39 36 24 18 15 7 7 3 5 1 19 15 32 32 47 59 64 65
164 162 163 157 159 157 154 150 148 145 145 139 132 127 124 124 124 125 125 124 121 121 122 118 110 110 112 108 103 102 98 49 34 27 13 1 350 347 73 59 55 45 35 38 28 15 6 9 11 30 27 26 11 353 350 351 354 18 49 50 43 37 29 35 52 58 61 52 45 40 27 12 17 7 2 17 346 37 13 38 35 54 56 62 54
164 162 161 160 160 161 155 152 150 147 143 139 139 132 131 130 129 124 122 125 127 130 125 117 114 107 100 96 97 102 89 37 24 19 10 357 342 333 67 70 64 52 42 36 24 15 8 7 14 27 32 28 2 348 342 339 347 327 55 63 55 39 31 31 40 49 51 64 60 53 36 33 34 15 2 1 19 20 34 36 19 63 63 64 54
164 162 161 159 161 161 154 152 151 145 144 141 144 142 134 132 129 128 131 132 132 126 124 121 112 113 115 114 112 110 85 40 32 15 3 349 340 320 71 66 63 61 60 56 43 26 17 17 23 33 31 11 0 344 335 328 319 16 72 88 75 54 34 19 16 8 25 35 66 65 51 45 46 31 16 8 8 22 41 57 39 42 88 104 81
165 161 162 162 165 160 156 154 150 147 146 147 152 143 136 135 134 133 129 126 117 116 115 123 127 118 108 106 109 94 85 53 37 17 353 331 332 88 98 102 97 101 89 68 52 39 30 26 29 37 25 8 354 347 345 350 38 57 54 58 88 75 41 341 295 330 353 7 36 77 73 53 57 45 29 19 11 21 88 102 61 41 74 79 65
166 164 166 167 167 161 161 156 152 149 150 155 152 141 139 136 133 133 127 125 127 129 131 124 123 123 123 120 112 109 87 43 31 27 11 4 346 109 125 125 134 121 111 91 76 53 43 35 36 22 19 6 357 2 3 41 33 47 53 52 52 51 76 347 273 287 283 270 259 290 184 230 46 49 36 27 27 14 27 46 34 15 69 89 88
165 165 170 171 163 161 160 155 150 152 157 157 147 139 135 133 134 136 134 133 133 133 128 126 123 125 122 118 121 115 102 72 56 36 10 9 335 179 142 132 128 113 88 91 99 76 50 51 41 19 13 359 2 19 10 39 49 50 48 46 48 50 35 15 14 349 241 249 257 213 218 225 53 49 44 40 34 27 32 38 18 24 56 59 84
167 170 171 164 161 158 156 153 153 156 156 148 142 139 140 138 135 133 131 129 127 131 131 127 126 118 113 114 126 122 118 96 51 28 21 6 351 213 145 148 141 127 107 74 67 76 69 48 40 25 9 1 13 24 19 27 59 51 52 51 38 39 33 17 357 11 24 60 58 63 71 57 47 44 43 44 43 41 38 36 18 27 53 66 71
166 170 162 159 158 153 153 152 154 151 146 137 137 137 137 135 136 133 130 130 133 127 126 127 121 113 112 123 107 109 100 77 53 37 25 22 9 58 87 94 64 75 89 96 76 61 60 63 39 20 1 4 10 17 23 16 47 38 34 38 13 12 335 13 25 22 25 57 64 56 56 53 47 44 46 41 41 42 39 35 34 30 37 50 61
165 164 158 154 151 151 147 151 147 144 139 136 133 134 136 135 132 131 127 121 114 110 105 100 100 114 128 133 126 105 108 91 66 44 39 33 26 26 77 33 67 89 80 64 72 73 67 62 57 19 357 355 3 10 16 20 31 43 27 22 352 299 299 42 31 35 34 39 47 60 59 49 47 46 44 48 46 42 39 37 36 37 41 41 49
159 152 152 151 145 142 140 138 137 133 129 129 132 132 130 129 128 125 119 117 117 106 106 106 98 104 118 109 99 84 83 94 75 45 46 44 42 41 39 38 25 82 83 99 90 79 77 79 72 17 351 348 348 354 4 9 26 34 0 332 320 338 49 59 59 50 50 43 39 42 46 47 44 44 45 46 51 51 45 38 35 36 37 46 51
147 145 146 142 139 139 137 136 136 133 130 131 132 133 133 130 125 123 123 122 119 125 127 124 123 127 121 90 101 106 82 57 65 58 44 47 46 47 42 37 43 86 91 100 103 115 126 92 61 16 345 332 331 331 342 6 20 3 333 344 2 346 35 46 66 73 68 59 50 47 36 36 41 43 46 46 49 61 64 61 54 43 35 32 34
148 150 143 138 136 135 138 138 132 128 131 132 133 133 132 124 123 129 134 137 143 142 140 132 133 139 148 143 129 117 105 86 64 70 64 51 48 48 49 49 40 75 82 100 104 113 144 122 35 343 330 319 316 310 325 35 3 334 330 305 1 21 9 20 57 74 81 72 64 60 52 34 31 25 34 53 75 76 83 83 76 66 56 41 33
145 139 140 137 134 137 140 133 128 132 136 135 134 133 127 130 127 132 141 145 142 141 139 144 129 146 152 157 149 123 116 133 113 82 90 71 51 50 60 65 68 80 82 76 93 56 18 341 322 306 297 298 292 298 303 10 28 76 52 52 39 15 21 19 20 31 47 67 77 74 72 64 55 39 23 17 26 82 98 96 93 84 78 69 53
138 140 140 141 142 136 126 125 131 140 141 144 144 142 141 142 146 152 151 146 151 143 148 145 139 140 159 152 144 145 148 118 141 146 137 109 88 70 92 99 89 85 89 98 120 148 226 267 285 287 286 272 262 211 188 193 322 81 90 82 68 44 28 19 10 23 37 36 48 64 71 55 39 43 37 27 20 20 34 84 85 74 71 59 53
142 143 145 141 135 131 131 136 140 140 137 137 136 136 138 140 136 120 96 102 122 128 139 150 141 143 144 151 144 155 161 152 143 170 151 160 144 154 133 124 126 123 124 158 181 229 246 250 254 255 278 310 306 294 294 180 221 247 124 131 111 93 74 39 11 22 23 35 42 49 83 94 82 53 36 33 26 3 4 26 77 108 91 84 86
144 147 144 139 140 140 138 140 140 138 135 128 135 141 147 144 125 120 130 146 156 150 186 182 154 144 150 149 159 161 169 164 175 165 168 167 181 172 161 163 171 189 174 183 209 233 242 258 276 278 269 263 272 267 141 67 43 14 26 56 105 128 107 80 52 16 17 15 13 18 29 52 99 100 82 69 53 9 360 24 16 52 85 122 62
147 141 141 140 144 141 144 152 147 142 144 147 133 138 150 137 129 123 95 104 157 171 219 186 153 143 152 157 157 177 175 177 181 113 100 68 139 215 177 128 178 103 78 57 341 231 230 239 241 261 241 214 199 192 162 142 117 94 61 43 21 23 28 104 101 51 18 37 45 25 40 34 25 55 116 114 67 42 348 28 22 49 27 48 66
133 135 130 120 123 138 135 130 134 132 119 111 106 67 33 69 117 129 124 115 97 16 217 197 160 157 142 107 123 177 194 150 133 116 114 100 85 87 92 86 66 52 6 357 13 304 276 272 251 226 223 68 58 35 24 128 133 117 95 87 63 36 8 357 13 125 87 62 44 65 44 32 57 53 34 41 14 30 13 62 64 44 48 48 49
138 130 131 137 144 135 122 121 130 120 110 115 113 118 116 48 44 68 96 99 104 102 94 103 119 122 124 126 67 52 120 133 135 124 118 112 113 113 91 68 65 52 32 28 340 282 262 269 254 34 26 49 37 74 66 24 26 104 107 85 72 60 23 354 343 3 36 112 87 58 86 91 57 43 66 57 51 18 39 19 41 90 78 47 65
145 139 132 127 123 121 117 121 125 118 113 110 102 118 114 104 77 43 46 95 92 91 95 97 104 113 121 122 121 69 86 140 130 123 123 118 109 93 70 63 67 65 32 112 330 299 271 224 55 25 33 104 155 61 50 78 51 44 73 94 82 57 40 343 318 12 3 23 29 82 60 32 82 66 68 58 73 44 33 28 8 12 91 129 82
142 149 138 141 133 137 140 140 138 136 128 123 119 121 126 131 123 111 49 53 77 81 77 86 95 104 112 118 127 138 148 149 124 119 117 116 104 90 105 93 69 22 96 246 249 266 240 107 185 163 128 79 12 97 105 62 88 94 79 91 93 52 320 344 350 55 44 4 27 0 348 88 39 41 63 71 59 49 42 30 10 10 12 35 48
112 122 136 146 145 138 136 137 138 131 128 142 148 143 139 137 134 125 123 120 83 65 59 59 80 89 82 105 114 118 129 134 127 123 120 114 108 95 100 106 99 102 146 244 304 289 277 92 52 41 32 46 113 118 130 148 157 153 155 138 128 145 75 38 22 347 64 18 19 3 347 349 116 80 58 76 76 66 51 48 20 12 15 16 36
117 125 134 146 150 144 144 141 139 136 142 142 140 149 147 143 137 137 139 134 125 123 133 81 44 71 112 107 108 121 130 130 126 127 121 123 123 154 119 207 20 228 208 235 234 260 252 134 161 153 138 95 342 49 59 5 24 38 52 145 153 158 126 100 57 330 3 60 339 348 350 355 358 80 57 67 89 100 84 71 50 20 15 20 25
123 133 154 159 162 151 146 145 148 151 152 150 153 153 152 147 147 147 143 131 128 128 131 117 110 66 86 88 111 119 121 123 125 123 128 126 158 153 175 204 216 213 216 213 235 248 336 140 122 146 184 115 200 215 154 105 56 41 10 11 35 50 66 78 35 328 315 97 353 301 323 15 349 26 81 44 41 34 107 108 76 64 25 7 51
138 153 164 169 164 150 144 147 152 154 151 153 158 149 144 142 144 144 140 140 138 137 120 122 120 104 104 111 109 93 93 105 114 117 123 157 206 226 225 224 227 215 205 210 207 148 225 249 40 131 127 167 119 152 120 98 98 88 61 27 355 64 71 65 74 303 299 110 2 334 359 354 44 69 54 68 66 43 21 66 118 90 48 15 3
152 158 167 165 159 148 142 142 139 138 142 138 130 131 140 142 145 140 144 150 159 150 140 148 150 149 159 157 174 164 140 114 92 69 49 26 226 216 233 243 249 263 211 168 152 172 222 126 177 172 180 179 200 206 159 158 151 151 154 193 207 165 149 163 183 277 294 4 41 345 2 39 360 51 104 75 64 100 76 23 31 89 93 37 14
155 160 139 125 134 136 133 134 140 143 142 140 140 148 147 149 145 153 160 166 163 157 151 156 164 168 169 152 165 147 136 159 177 182 184 197 206 216 217 235 253 263 245 147 139 174 192 166 200 112 146 280 140 334 351 138 178 130 166 188 204 172 167 203 196 221 223 116 121 320 16 337 77 27 15 97 107 30 96 89 41 29 61 91 43
154 139 134 138 137 133 136 142 147 148 152 151 155 154 153 154 158 162 168 166 166 162 158 164 174 178 166 160 165 164 180 178 190 188 191 196 203 210 214 223 238 248 231 148 141 182 208 185 121 137 128 27 22 177 285 129 122 131 257 271 197 148 193 167 125 198 91 239 114 195 172 325 94 94 41 1 15 162 116 125 122 89 49 45 26
153 139 139 148 143 139 143 148 155 158 152 151 149 155 157 158 163 164 170 168 169 176 166 170 178 176 165 167 170 171 183 185 186 195 193 198 197 201 207 215 232 232 220 154 147 183 229 160 146 153 148 213 212 201 124 228 154 142 216 251 269 179 155 147 180 130 156 250 195 158 153 79 355 99 160 193 239 262 142 163 92 138 126 82 38
158 149 156 155 150 155 156 160 158 154 152 153 157 162 164 163 167 175 177 174 179 184 169 174 178 175 153 162 170 178 190 190 189 195 198 197 198 199 201 212 223 221 190 168 166 171 214 144 154 168 158 194 201 188 203 219 221 172 206 198 222 236 180 135 136 93 293 132 351 36 75 59 209 329 328 277 273 57 16 37 114 50 72 90 60
155 162 163 161 165 167 163 159 154 158 161 162 165 164 167 172 182 180 182 176 175 181 172 171 179 149 155 165 174 181 203 203 195 198 203 194 196 198 197 200 214 192 180 185 159 172 175 144 163 191 173 174 199 195 201 193 212 249 196 199 217 195 269 124 133 169 235 126 123 349 256 175 193 231 228 252 155 121 108 340 359 23 114 105 99
158 168 169 169 173 168 168 160 161 163 162 164 167 167 175 185 182 182 180 177 173 183 170 175 155 141 152 168 172 180 203 216 230 208 201 189 194 194 186 191 211 178 184 200 154 166 168 168 181 199 163 169 184 200 215 204 186 245 266 196 239 184 233 135 152 178 190 151 137 174 212 344 305 123 126 306 257 163 167 141 104 359 27 101 114
166 170 170 176 176 168 169 162 162 162 164 165 172 174 175 185 183 184 178 173 173 185 176 165 141 151 154 166 176 186 197 214 229 231 196 187 186 198 189 187 204 174 181 194 156 165 170 179 183 198 153 163 165 203 228 263 172 196 265 116 185 184 281 122 138 83 62 88 171 195 156 176 218 230 170 199 286 336 130 147 141 196 210 178 126
165 168 172 180 171 169 165 166 167 166 169 171 172 179 173 180 181 177 169 172 171 184 185 166 145 158 163 174 180 190 196 207 222 227 193 191 189 196 200 188 197 183 178 188 176 161 176 188 183 185 151 176 169 179 228 249 307 257 350 317 273 157 199 132 91 91 79 248 297 252 181 231 345 46 28 354 297 347 26 71 68 68 356 47 75
162 167 182 181 174 170 169 164 169 169 171 171 174 173 174 179 179 178 179 186 171 181 193 181 152 164 171 177 186 190 194 199 212 221 207 192 195 193 192 203 200 172 169 180 184 165 172 187 194 167 155 186 168 167 198 194 190 212 161 315 322 16 42 86 104 118 145 175 324 314 348 242 167 119 232 274 299 103 311 204 128 136 192 77 277
164 172 185 178 175 172 170 166 168 162 173 172 175 173 175 179 181 182 187 191 179 185 199 197 173 166 174 179 186 188 192 196 204 219 217 199 196 201 187 209 188 162 170 184 176 158 170 184 190 182 157 180 170 172 203 183 175 202 172 196 251 68 73 91 107 67 14 139 162 322 318 289 334 165 174 208 269 157 186 237 194 203 207 189 189
168 182 183 179 180 174 169 169 171 174 177 171 172 172 173 175 184 185 190 199 195 190 206 201 192 172 170 175 182 187 189 193 200 209 220 206 191 200 195 204 179 165 174 197 174 159 167 174 182 186 174 168 179 171 191 208 182 187 185 158 126 118 91 76 75 69 14 354 112 239 274 302 321 334 43 181 199 320 294 306 18 26 299 285 260
180 182 181 181 180 175 169 174 172 177 175 174 175 178 176 182 190 200 194 192 193 189 200 204 199 184 172 173 179 186 188 193 198 204 212 205 190 194 196 192 179 167 182 192 172 163 175 173 176 185 184 179 178 184 187 196 213 185 185 144 148 136 128 116 110 99 23 323 324 277 247 235 248 232 196 215 241 230 259 287 281 295 337 324 297
192 186 179 183 187 179 175 178 176 182 177 177 179 184 185 189 193 197 194 192 192 187 190 201 203 192 181 179 176 184 187 190 196 203 210 203 186 186 194 191 177 172 187 193 169 173 173 179 176 184 190 188 187 185 199 192 195 213 147 145 151 143 141 141 148 151 129 46 318 312 286 256 245 239 226 211 212 211 212 228 247 43 354 314 294